Regional Weather Roundup
Issued by NWS

Current Version | Previous Version | Text Only | Print | Product List | Glossary On
Versions: 1 2 3 4 5 6 7 8 9 10 11 12 13 14 15 16 17 18 19 20 21 22 23 24 25 26 27 28 29 30 31 32 33 34 35 36 37 38 39 40 41 42 43 44 45 46 47 48 49 50
000
ASUS45 KTFX 021119
RWRMT
MONTANA HOURLY WEATHER ROUNDUP
NATIONAL WEATHER SERVICE GREAT FALLS MT
519 AM MDT THU OCT 2 2014

NOTE: "FAIR" INDICATES FEW OR NO CLOUDS BELOW 12000 FEET WITH NO
SIGNIFICANT WEATHER AND/OR OBSTRUCTIONS TO VISIBILITY.

* THESE STATIONS ARE NOT UNDER NWS QUALITY CONTROL. THEY DO NOT
   REPORT WEATHER SUCH AS PRECIPITATION OR FOG.

MTZ001>007-043-021200-
WEST OF THE DIVIDE
CITY           SKY/WX    TMP DP  RH WIND       PRES   REMARKS
KALISPELL      CLOUDY    43  37  79 S6        29.99R
MISSOULA       CLOUDY    46  37  71 SE9       30.07F
BUTTE          PTCLDY    30  27  89 CALM      30.08F
MULLAN PASS    CLOUDY    36  30  79 VRB3      30.07R
* ESSEX        N/A       43  38  83 NW2        N/A
* LINCOLN      N/A       44  32  63 SW4G11     N/A
* LOOKOUT PASS N/A       41  33  73 E4         N/A
* POLSON       N/A       44  34  68 S2         N/A
* RONAN APT    CLOUDY    48  37  66 E5         N/A
* SEELEY LAKE  N/A       41  34  76 NE1        N/A
* THOMP F APT  MOCLDY    31  25  78 NE2        N/A
* YAAK HILL    N/A       44  33  65 W1         N/A
$$

MTZ008-052>055-021200-
SOUTHWEST MONTANA
CITY           SKY/WX    TMP DP  RH WIND       PRES   REMARKS
BOZEMAN        MOCLDY    36  32  85 SW5       30.07S WCI  32
DILLON         PTCLDY    39  27  62 S8        30.10F WCI  33
W YELLOWSTONE  CLOUDY    34  28  79 SW14G21   30.16F WCI  24
* THREE FORKS  MOCLDY    37  37 100 N/A        N/A
* BOULDER HILL N/A       40  21  47 S6         N/A   WCI  36
* MONIDA PASS  N/A       29  25  85 SE12       N/A   WCI  19
* RAYNOLDS PAS N/A       32  14  47 SE19       N/A   WCI  20
* WHITEHALL    N/A       36  26  67 NW8G16     N/A   WCI  30
* WISE RIVER   N/A       39  28  65 W6G11      N/A   WCI  35
$$

MTZ009>010-012-014-046-048-049-054-021200-
EAST SLOPES AND CENTRAL MONTANA
CITY           SKY/WX    TMP DP  RH WIND       PRES   REMARKS
CUT BANK       LGT SNOW  34  32  92 NW16      30.06R VSB 1 3/4 WCI  24
GREAT FALLS    CLOUDY    43  34  71 N18G31    29.98R
HELENA         CLOUDY    46  30  54 SW5       30.03S
MALMSTROM AFB  LGT RAIN  41  34  76 N14G22    30.02R
* CONRAD       MOCLDY    34  34 100 W11        N/A   WCI  26
* DEARBORN     N/A       52  31  45 S11G20     N/A
* EAST GLACIER N/A       30  29  96 NE10G16    N/A   WCI  21
* MONARCH      N/A       41  19  41 SW20G28    N/A
* PENDROY      N/A       32  32 100 N16G27     N/A   WCI  21
* ROGERS PASS  N/A       41  30  65 E4G21      N/A
* SAINT MARY   N/A       31  30  96 N6G12      N/A   WCI  25
* SWEET GRASS  N/A       32  32 100 W17        N/A   WCI  21
* WHITE SULPH  N/A       42  27  55 S2         N/A
$$

MTZ011-013-016-021-035-040-045-047-050-051-021200-
NORTH CENTRAL MONTANA
CITY           SKY/WX    TMP DP  RH WIND       PRES   REMARKS
HAVRE          LGT RAIN  41  37  86 NW6       29.99R
LEWISTOWN      CLOUDY    43  30  60 SW16      29.95S
* CHINOOK      CLOUDY    41  37  86 W10G16    29.99R
* FORT BENTON  CLOUDY    41  36  82 NW12      30.01R
* CHESTER      N/A       38  33  82 N10G19     N/A   WCI  31
* DENTON       N/A       36  28  73 N7         N/A   WCI  30
* JUDITH GAP   N/A       40  27  60 SW17       N/A   WCI  31
* LOMA         N/A       41  36  82 NW4        N/A
$$

MTZ017>020-022>027-061-062-021200-
NORTHEAST MONTANA
CITY           SKY/WX    TMP DP  RH WIND       PRES   REMARKS
GLASGOW        CLEAR     43  34  71 NW7       29.84R
GLENDIVE       MOCLDY    37  36  96 S8        29.90S WCI  31
JORDAN         PTCLDY    39  32  76 W6        29.90R WCI  35
SIDNEY         MOCLDY    43  39  86 S10       29.87F
WOLF POINT     CLEAR     39  36  89 W3        29.83F
* BEAVER HILL  N/A       44  37  76 S15G20     N/A
* CIRCLE       N/A       41  36  82 W5         N/A
* LINDSAY DVD  N/A       46  34  63 SW16       N/A
* NAVAJO       N/A       43  37  79 SW14       N/A
* SACO         N/A       42  37  83 NW14       N/A
$$

MTZ028>042-056>058-021200-
SOUTHCENTRAL AND SOUTHEAST MONTANA
CITY           SKY/WX    TMP DP  RH WIND       PRES   REMARKS
BAKER          CLEAR     43  34  71 SW12      29.92F
BILLINGS       PTCLDY    43  30  60 SW9       29.99F
LIVINGSTON     MOCLDY    39  27  62 NW13      30.02F WCI  31
MILES CITY     PTCLDY    39  34  82 S6        29.94R WCI  35
* LAUREL APT   PTCLDY    43  27  53 SW5        N/A
* ROUNDUP APT  PTCLDY    46  27  48 SW8        N/A
* ALZADA       N/A       36  34  92 E4         N/A
* HYSHAM       N/A       41  28  60 SW2        N/A
* LAME DEER    N/A       41  31  68 SW7        N/A
* REED POINT   N/A       47  26  44 SW4G12     N/A
* ROSCOE HILL  N/A       41  17  38 W1G6       N/A
$$

REGIONAL REPORTS...DAKOTAS
CITY           SKY/WX    TMP DP  RH WIND       PRES   REMARKS
WILLISTON      MOCLDY    43  39  86 SE3       29.83F
DICKINSON      PTCLDY    39  36  89 SW3       29.89S
BEACH          N/A       43  39  86 SW13      29.90S
CROSBY         CLOUDY    43  43 100 S10       29.80F
TIOGA          CLOUDY    45  45 100 SW14G20   29.85F
WATFORD CITY   MOCLDY    41  41 100 SW5       29.84S
BISMARCK       PTCLDY    39  39 100 CALM      29.89S
GRAND FORKS    CLOUDY    48  46  93 SW5       29.80R
FARGO          CLOUDY    48  45  89 W9        29.83S
BUFFALO SD     PTCLDY    37  34  89 W7        29.89F WCI  32
RAPID CITY     PTCLDY    39  36  89 W7        30.00R WCI  34
$$

REGIONAL REPORTS...WYOMING/IDAHO/WASHINGTON
CITY           SKY/WX    TMP DP  RH WIND       PRES   REMARKS
GILLETTE       CLEAR     43  34  71 SW14      30.02R
SHERIDAN       CLEAR     34  27  76 CALM      30.00R
CODY           PTCLDY    48  25  41 W8G21     30.03S
YELLOWSTONE LA MOCLDY    30  27  89 VRB5      30.19S WCI  25
SALMON         PTCLDY    30  27  89 CALM      30.17S
MULLAN PASS    CLOUDY    36  30  79 VRB3      30.07S
SAND POINT     MOCLDY    46  37  71 W3        30.06R
SPOKANE        CLOUDY    45  32  60 W9        30.09R
$$

REGIONAL REPORTS...ALBERTA
CITY           SKY/WX    TMP DP  RH WIND       PRES   REMARKS
CALGARY        MOCLDY    32  25  75 N15       30.09R WCI  22
LETHBRIDGE     LGT SNOW  34  32  92 NW8       30.11R WCI  27
MEDICINE HAT   N/A       41  36  82 NW9       30.03R
EDMONTON       MOCLDY    32  25  75 NW13G20   30.08R WCI  22
WATERTON GATE  N/A       30  30 100 CALM       N/A
CARDSTON       N/A       32 N/A N/A W3         N/A
MILK RIVER     N/A       32  32 100 NW17       N/A   WCI  21
$$

REGIONAL REPORTS...SASKATCHEWAN
CITY           SKY/WX    TMP DP  RH WIND       PRES   REMARKS
SWIFT CURRENT  CLOUDY    37  36  96 W23G29    29.87R WCI  26
MOOSE JAW      CLOUDY    43  43 100 NW12      29.79R
REGINA         CLOUDY    45  41  86 N8        29.75F
VAL MARIE      N/A       37  36  96 NW6        N/A   WCI  32
ASSINIBOIA     N/A       41  37  86 N20G26     N/A
CORONACH       N/A       41  36  82 W13        N/A

$$



USA.gov is the U.S. government's official web portal to all federal, state and local government web resources and services.